Regional Weather Roundup
Issued by NWS

Home | Current Version | Previous Version | Text Only | Print | Product List | Glossary Off
Versions: 1 2 3 4 5 6 7 8 9 10 11 12 13 14 15 16 17 18 19 20 21 22 23 24 25 26 27 28 29 30 31 32 33 34 35 36 37 38 39 40 41 42 43 44 45 46 47 48 49 50

000
ASUS43 KOAX 152310
RWRNE

WEATHER ROUNDUP FOR NEBRASKA
NATIONAL WEATHER SERVICE OMAHA NE
500 PM CST FRI DEC 15 2017

NOTES: SATELLITE DATA IS BEING USED TO AUGMENT CLOUD COVER ABOVE
       12000 FEET.
       "FAIR" INDICATES FEW OR NO CLOUDS BELOW 12,000 FEET WITH NO
       SIGNIFICANT WEATHER AND/OR OBSTRUCTIONS TO VISIBILITY.


NEZ001>004-019>022-054>056-160000-
NEBRASKA PANHANDLE

CITY           SKY/WX    TMP DP  RH WIND       PRES   REMARKS
SCOTTSBLUFF    CLOUDY    55  13  18 W16G24    29.80F
ALLIANCE       CLOUDY    49  17  28 W10       29.77F
CHADRON        CLOUDY    49  16  26 W6        29.73F
GORDON         FAIR      50  18  28 W9        29.73F
KIMBALL        CLOUDY    55  13  19 W14       29.85S
SIDNEY         CLOUDY    57  12  17 NW13      29.84R
$$

NEZ057>060-069>072-079>082-160000-
SOUTHWEST NEBRASKA

CITY           SKY/WX    TMP DP  RH WIND       PRES   REMARKS
NORTH PLATTE   CLEAR     51  17  26 W8        29.80F
IMPERIAL       CLOUDY    54  11  18 W7        29.83F
LEXINGTON      CLEAR     52  18  26 SW7       29.81F
MCCOOK         CLEAR     54  13  19 SW7       29.83F
OGALLALA       CLOUDY    51  18  26 W5        29.81S
$$

NEZ005>010-023>029-035>040-094-160000-
NORTH CENTRAL NEBRASKA

CITY           SKY/WX    TMP DP  RH WIND       PRES   REMARKS
VALENTINE      CLOUDY    45  29  53 W6        29.72F
AINSWORTH      CLOUDY    43  31  63 W8        29.72S
BROKEN BOW     PTCLDY    47  26  44 SW5       29.78S
O`NEILL        CLEAR     42  29  60 S6        29.73F
ORD            CLEAR     43  28  55 SW6       29.77F
THEDFORD       CLOUDY    52  20  29 SW6       29.76F
$$

NEZ041-046>049-061>064-073>077-083>087-160000-
SOUTH CENTRAL NEBRASKA

CITY           SKY/WX    TMP DP  RH WIND       PRES   REMARKS
GRAND ISLAND   CLEAR     47  24  40 SW14      29.81F
AURORA         CLEAR     45  28  51 SW10      29.81F
HASTINGS       CLEAR     49  20  31 SW8       29.82F
HEBRON         CLEAR     47  27  46 S6        29.86F
HOLDREGE       CLEAR     50  20  31 SW7       29.82F
KEARNEY        CLEAR     50  20  30 SW12      29.81F
YORK           CLEAR     45  28  53 SW10      29.82F
$$

NEZ011>018-030>034-042>045-160000-
NORTHEAST NEBRASKA

CITY           SKY/WX    TMP DP  RH WIND       PRES   REMARKS
NORFOLK        CLEAR     40  29  64 SW9       29.76S WCI  34
ALBION         CLEAR     43  30  60 SW3       29.78F
BLAIR          CLEAR     46  28  47 S17       29.80F
COLUMBUS       CLEAR     44  28  53 SW7       29.80F
FREMONT        CLOUDY    45  27  49 SW8       29.81F
TEKAMAH        PTCLDY    47  25  42 SW15      29.80S
WAYNE          PTCLDY    43  27  52 SW12      29.76F
$$

NEZ050>053-065>068-078-088>093-160000-
SOUTHEAST NEBRASKA

CITY           SKY/WX    TMP DP  RH WIND       PRES   REMARKS
LINCOLN        CLEAR     48  25  40 SW14      29.85F
OMAHA EPPLEY   MOCLDY    48  24  39 S10G26    29.82F
BEATRICE       CLEAR     47  25  41 SW10G16   29.88F
FALLS CITY     CLEAR     46  24  42 SW14      29.91F
NEBRASKA CITY  CLEAR     45  26  47 SW14      29.86F
PLATTSMOUTH    CLEAR     46  26  45 S13       29.84F
$$

NEZ044-045-051>053-067-160000-
OMAHA AREA

CITY           SKY/WX    TMP DP  RH WIND       PRES   REMARKS
OMAHA EPPLEY   MOCLDY    48  24  39 S10G26    29.82F
BLAIR          CLEAR     46  28  47 S17       29.80F
FREMONT        CLOUDY    45  27  49 SW8       29.81F
MILLARD        CLEAR     48  27  44 S6        29.82F
OFFUTT AFB     MOCLDY    47  24  41 S14       29.82F
PLATTSMOUTH    CLEAR     46  26  45 S13       29.84F
WAHOO          FAIR      46  26  45 SW12      29.81F
$$




USA.gov is the U.S. government's official web portal to all federal, state and local government web resources and services.